| time (UTC) | temp C | wind direction | speed KPH | gust KPH | rain 1hr cm | rain 24hr cm | rain mn cm | humidity % | barometer mb |
| 20260507233006 | 2 | 192 | 0.0 | 0.0 | 0.00 | 0.00 | 0.00 | 64 | 1020.6 |
| 20260507231502 | 3 | 192 | 0.0 | 0.0 | 0.00 | 0.00 | 0.00 | 61 | 1020.4 |
| 20260507230106 | 3 | 192 | 0.0 | 0.0 | 0.00 | 0.00 | 0.00 | 61 | 1020.3 |
| 20260507224557 | 3 | 192 | 0.0 | 0.0 | 0.00 | 0.00 | 0.00 | 59 | 1020.1 |
| 20260507223059 | 4 | 192 | 0.0 | 0.0 | 0.00 | 0.00 | 0.00 | 57 | 1020.1 |
| 20260507221554 | 5 | 192 | 0.0 | 0.0 | 0.00 | 0.00 | 0.00 | 55 | 1020.1 |
| 20260507220049 | 5 | 244 | 0.0 | 0.0 | 0.00 | 0.00 | 0.00 | 54 | 1020.0 |
| 20260507214610 | 5 | 244 | 0.0 | 0.0 | 0.00 | 0.00 | 0.00 | 53 | 1020.0 |
| 20260507213058 | 5 | 251 | 0.0 | 0.0 | 0.00 | 0.00 | 0.00 | 52 | 1019.8 |
| 20260507211553 | 6 | 251 | 0.0 | 0.0 | 0.00 | 0.00 | 0.00 | 51 | 1019.7 |
| 20260507210051 | 7 | 251 | 0.0 | 0.0 | 0.00 | 0.00 | 0.00 | 48 | 1019.6 |
| 20260507204542 | 7 | 251 | 0.0 | 0.0 | 0.00 | 0.00 | 0.00 | 45 | 1019.3 |
| 20260507203049 | 8 | 82 | 0.0 | 0.0 | 0.00 | 0.00 | 0.00 | 41 | 1019.1 |
| 20260507201544 | 8 | 50 | 0.0 | 0.0 | 0.00 | 0.00 | 0.00 | 43 | 1019.0 |
| 20260507200040 | 9 | 64 | 0.0 | 0.0 | 0.00 | 0.00 | 0.00 | 39 | 1019.0 |
| 20260507194600 | 10 | 141 | 0.0 | 12.9 | 0.00 | 0.00 | 0.00 | 36 | 1018.7 |
| 20260507193034 | 10 | 132 | 8.0 | 14.5 | 0.00 | 0.00 | 0.00 | 35 | 1018.5 |
| 20260507191533 | 11 | 125 | 6.4 | 14.5 | 0.00 | 0.00 | 0.00 | 35 | 1018.3 |
| 20260507190030 | 11 | 140 | 6.4 | 17.7 | 0.00 | 0.00 | 0.00 | 33 | 1018.1 |
| 20260507184530 | 12 | 138 | 6.4 | 20.9 | 0.00 | 0.00 | 0.00 | 33 | 1017.8 |
| 20260507183033 | 12 | 159 | 9.7 | 17.7 | 0.00 | 0.00 | 0.00 | 33 | 1017.7 |
| 20260507181525 | 12 | 146 | 1.6 | 20.9 | 0.00 | 0.00 | 0.00 | 33 | 1017.5 |
| 20260507180028 | 13 | 133 | 8.0 | 17.7 | 0.00 | 0.00 | 0.00 | 33 | 1017.4 |
| 20260507174534 | 13 | 168 | 9.7 | 20.9 | 0.00 | 0.00 | 0.00 | 32 | 1017.2 |
| 20260507173031 | 13 | 148 | 11.3 | 22.5 | 0.00 | 0.00 | 0.00 | 32 | 1017.1 |
| 20260507171522 | 14 | 86 | 6.4 | 20.9 | 0.00 | 0.00 | 0.00 | 30 | 1017.0 |
| 20260507170021 | 15 | 114 | 0.0 | 14.5 | 0.00 | 0.00 | 0.00 | 29 | 1017.0 |
| 20260507164520 | 15 | 130 | 4.8 | 22.5 | 0.00 | 0.00 | 0.00 | 28 | 1016.8 |
| 20260507163019 | 15 | 121 | 1.6 | 16.1 | 0.00 | 0.00 | 0.00 | 28 | 1016.7 |
| 20260507161518 | 16 | 86 | 0.0 | 4.8 | 0.00 | 0.00 | 0.00 | 25 | 1016.7 |
| 20260507160022 | 16 | 352 | 0.0 | 4.8 | 0.00 | 0.00 | 0.00 | 25 | 1016.8 |
| 20260507154529 | 16 | 330 | 0.0 | 3.2 | 0.00 | 0.00 | 0.00 | 25 | 1016.9 |
| 20260507153029 | 16 | 339 | 0.0 | 4.8 | 0.00 | 0.00 | 0.00 | 25 | 1016.8 |
| 20260507151515 | 16 | 298 | 0.0 | 3.2 | 0.00 | 0.00 | 0.00 | 26 | 1016.7 |
| 20260507150016 | 16 | 316 | 0.0 | 4.8 | 0.00 | 0.00 | 0.00 | 24 | 1016.8 |
| 20260507144513 | 16 | 323 | 0.0 | 6.4 | 0.00 | 0.00 | 0.00 | 26 | 1016.8 |
| 20260507143021 | 16 | 342 | 0.0 | 3.2 | 0.00 | 0.00 | 0.00 | 27 | 1017.0 |
| 20260507141510 | 15 | 296 | 0.0 | 4.8 | 0.00 | 0.00 | 0.00 | 27 | 1017.0 |
| 20260507140012 | 16 | 346 | 0.0 | 3.2 | 0.00 | 0.00 | 0.00 | 27 | 1017.0 |
| 20260507134508 | 15 | 334 | 0.0 | 1.6 | 0.00 | 0.00 | 0.00 | 29 | 1017.0 |
| 20260507133006 | 15 | 178 | 0.0 | 3.2 | 0.00 | 0.00 | 0.00 | 33 | 1017.1 |
| 20260507131508 | 14 | 166 | 0.0 | 17.7 | 0.00 | 0.00 | 0.00 | 28 | 1017.2 |
| 20260507130004 | 14 | 251 | 1.6 | 12.9 | 0.00 | 0.00 | 0.00 | 26 | 1017.1 |
| 20260507124502 | 14 | 273 | 0.0 | 16.1 | 0.00 | 0.00 | 0.00 | 26 | 1017.3 |
| 20260507123101 | 13 | 188 | 0.0 | 14.5 | 0.00 | 0.00 | 0.00 | 27 | 1017.3 |
| 20260507121559 | 13 | 217 | 3.2 | 16.1 | 0.00 | 0.00 | 0.00 | 29 | 1017.2 |
| 20260507120059 | 13 | 288 | 11.3 | 19.3 | 0.00 | 0.00 | 0.00 | 28 | 1017.3 |
| 20260507114558 | 13 | 261 | 0.0 | 14.5 | 0.00 | 0.00 | 0.00 | 27 | 1017.3 |
| 20260507113100 | 13 | 205 | 4.8 | 19.3 | 0.00 | 0.00 | 0.00 | 30 | 1017.3 |
| 20260507111552 | 12 | 278 | 0.0 | 9.7 | 0.00 | 0.00 | 0.00 | 31 | 1017.5 |
| 20260507110051 | 12 | 182 | 0.0 | 17.7 | 0.00 | 0.00 | 0.00 | 26 | 1017.5 |
| 20260507104549 | 12 | 143 | 0.0 | 14.5 | 0.00 | 0.00 | 0.00 | 25 | 1017.4 |
| 20260507103045 | 12 | 261 | 4.8 | 16.1 | 0.00 | 0.00 | 0.00 | 31 | 1017.5 |
| 20260507101544 | 11 | 186 | 3.2 | 16.1 | 0.00 | 0.00 | 0.00 | 31 | 1017.3 |
| 20260507100045 | 11 | 266 | 4.8 | 16.1 | 0.00 | 0.00 | 0.00 | 32 | 1017.3 |
| 20260507094538 | 11 | 251 | 4.8 | 17.7 | 0.00 | 0.00 | 0.00 | 33 | 1017.2 |
| 20260507093045 | 11 | 251 | 4.8 | 17.7 | 0.00 | 0.00 | 0.00 | 31 | 1017.2 |
| 20260507091535 | 10 | 261 | 3.2 | 16.1 | 0.00 | 0.00 | 0.00 | 33 | 1017.3 |
| 20260507090031 | 10 | 284 | 3.2 | 14.5 | 0.00 | 0.00 | 0.00 | 34 | 1017.4 |
| 20260507084528 | 10 | 317 | 0.0 | 16.1 | 0.00 | 0.00 | 0.00 | 37 | 1017.5 |
| 20260507083024 | 9 | 251 | 8.0 | 19.3 | 0.00 | 0.00 | 0.00 | 37 | 1017.5 |
| 20260507081520 | 9 | 261 | 3.2 | 16.1 | 0.00 | 0.00 | 0.00 | 39 | 1017.5 |
| 20260507080016 | 8 | 224 | 9.7 | 19.3 | 0.00 | 0.00 | 0.00 | 40 | 1017.3 |
| 20260507074511 | 8 | 265 | 11.3 | 20.9 | 0.00 | 0.00 | 0.00 | 42 | 1017.3 |
| 20260507073006 | 7 | 261 | 6.4 | 16.1 | 0.00 | 0.00 | 0.00 | 44 | 1017.3 |
| 20260507071508 | 7 | 300 | 6.4 | 17.7 | 0.00 | 0.00 | 0.00 | 45 | 1017.3 |
| 20260507070005 | 6 | 208 | 4.8 | 16.1 | 0.00 | 0.00 | 0.00 | 47 | 1017.4 |
| 20260507064558 | 6 | 230 | 1.6 | 14.5 | 0.00 | 0.00 | 0.00 | 50 | 1017.4 |
| 20260507063057 | 5 | 236 | 6.4 | 16.1 | 0.00 | 0.00 | 0.00 | 51 | 1017.4 |
| 20260507061558 | 4 | 304 | 1.6 | 9.7 | 0.00 | 0.00 | 0.00 | 56 | 1017.4 |
| 20260507060056 | 3 | 354 | 0.0 | 4.8 | 0.00 | 0.00 | 0.00 | 63 | 1017.4 |
| 20260507054551 | 3 | 294 | 0.0 | 8.0 | 0.00 | 0.00 | 0.00 | 62 | 1017.4 |
| 20260507053116 | 2 | 280 | 3.2 | 12.9 | 0.00 | 0.00 | 0.00 | 65 | 1017.3 |
| 20260507051557 | 1 | 222 | 1.6 | 9.7 | 0.00 | 0.00 | 0.00 | 67 | 1017.3 |
| 20260507050047 | 1 | 288 | 0.0 | 0.0 | 0.00 | 0.00 | 0.00 | 70 | 1017.2 |
| 20260507044546 | 0 | 276 | 0.0 | 0.0 | 0.00 | 0.00 | 0.00 | 72 | 1017.0 |
| 20260507043044 | 0 | 282 | 0.0 | 0.0 | 0.00 | 0.00 | 0.00 | 74 | 1017.0 |
| 20260507041546 | 0 | 280 | 0.0 | 0.0 | 0.00 | 0.00 | 0.00 | 74 | 1016.9 |
| 20260507040040 | 0 | 240 | 0.0 | 0.0 | 0.00 | 0.00 | 0.00 | 72 | 1016.8 |
| 20260507034539 | 0 | 261 | 3.2 | 6.4 | 0.00 | 0.00 | 0.00 | 73 | 1016.7 |
| 20260507033042 | 0 | 281 | 0.0 | 0.0 | 0.00 | 0.00 | 0.00 | 74 | 1016.6 |
| 20260507031531 | 0 | 283 | 0.0 | 4.8 | 0.00 | 0.00 | 0.00 | 71 | 1016.4 |
| 20260507030031 | 0 | 303 | 0.0 | 4.8 | 0.00 | 0.00 | 0.00 | 70 | 1016.5 |
| 20260507024531 | 0 | 300 | 0.0 | 4.8 | 0.00 | 0.00 | 0.00 | 71 | 1016.3 |
| 20260507023032 | 0 | 261 | 0.0 | 6.4 | 0.00 | 0.00 | 0.00 | 71 | 1016.2 |
| 20260507021522 | 0 | 313 | 0.0 | 4.8 | 0.00 | 0.00 | 0.00 | 70 | 1016.0 |
| 20260507020022 | 1 | 287 | 0.0 | 4.8 | 0.00 | 0.00 | 0.00 | 67 | 1015.9 |
| 20260507014517 | 1 | 278 | 0.0 | 4.8 | 0.00 | 0.00 | 0.00 | 65 | 1015.9 |
| 20260507013013 | 2 | 320 | 0.0 | 0.0 | 0.00 | 0.00 | 0.00 | 65 | 1015.8 |
| 20260507011509 | 2 | 261 | 1.6 | 8.0 | 0.00 | 0.00 | 0.00 | 59 | 1015.6 |
| 20260507010013 | 2 | 251 | 0.0 | 8.0 | 0.00 | 0.00 | 0.00 | 61 | 1015.4 |
| 20260507004505 | 2 | 334 | 0.0 | 0.0 | 0.00 | 0.00 | 0.00 | 61 | 1015.4 |
| 20260507003002 | 3 | 322 | 0.0 | 9.7 | 0.00 | 0.00 | 0.00 | 53 | 1015.3 |
| 20260507001559 | 4 | 242 | 4.8 | 14.5 | 0.00 | 0.00 | 0.00 | 51 | 1015.1 |
| 20260507000057 | 4 | 251 | 6.4 | 14.5 | 0.00 | 0.00 | 0.00 | 51 | 1015.1 |
| 20260506234555 | 4 | 247 | 4.8 | 14.5 | 0.00 | 0.00 | 0.00 | 52 | 1015.1 |